Location: Banksville Park
(38.5557°N, 75.1182°W)
Time: 18:14:46
(UTC+00:00)

SAR-Lupe-1 - Pass Details

Date: 26 January 2021
Orbit: 482 x 484 km, 98.2° (Epoch: 02 March)

Event Time Altitude Azimuth Distance (km) Brightness Sun altitude
Exits shadow 00:28:38 - 342° (NNW) 1,849 7.1 -26.1°
Reaches altitude 10° 00:29:13 10° 337° (NNW) 1,668 7.0 -26.2°
Maximum altitude 00:31:44 18° 292° (WNW) 1,232 6.8 -26.7°
Drops below altitude 10° 00:34:14 10° 247° (WSW) 1,659 7.6 -27.2°
Sets 00:36:44 0° 228° (SW) 2,534 8.4 -27.7°
